Time,TemperatureF,DewpointF,PressureIn,WindDirection,WindDirectionDegrees,WindSpeedMPH,WindSpeedGustMPH,Humidity,HourlyPrecipIn,Conditions,Clouds,dailyrainin,SoftwareType,DateUTC
2013-02-17 00:01:00,31.0,15.0,-100.00,SSW,195,35.0,45.0,53,0.00,,,-99.99,,2013-02-17 07:01:00,
2013-02-17 00:11:00,31.0,16.0,-100.00,SSE,165,34.0,45.0,53,0.00,,,-99.99,,2013-02-17 07:11:00,
2013-02-17 00:21:00,31.0,15.0,-100.00,SSW,210,33.0,44.0,52,0.00,,,-99.99,,2013-02-17 07:21:00,
2013-02-17 00:31:00,30.0,15.0,-100.00,SW,215,32.0,45.0,53,0.00,,,-99.99,,2013-02-17 07:31:00,
2013-02-17 00:41:00,30.0,15.0,-100.00,SW,215,32.0,45.0,52,0.00,,,-99.99,,2013-02-17 07:41:00,
2013-02-17 00:51:00,30.0,15.0,-100.00,SW,220,30.0,42.0,52,0.00,,,-99.99,,2013-02-17 07:51:00,
2013-02-17 01:01:00,31.0,15.0,-100.00,SSW,205,31.0,40.0,51,0.00,,,-99.99,,2013-02-17 08:01:00,
2013-02-17 01:11:00,31.0,15.0,-100.00,SSW,200,34.0,42.0,50,0.00,,,-99.99,,2013-02-17 08:11:00,
2013-02-17 01:21:00,31.0,15.0,-100.00,SSE,160,31.0,38.0,51,0.00,,,-99.99,,2013-02-17 08:21:00,
2013-02-17 01:31:00,31.0,15.0,-100.00,SSW,195,30.0,38.0,50,0.00,,,-99.99,,2013-02-17 08:31:00,
2013-02-17 01:42:00,31.0,15.0,-100.00,SSE,160,30.0,35.0,49,0.00,,,-99.99,,2013-02-17 08:42:00,
2013-02-17 01:52:00,32.0,14.0,-100.00,SW,220,29.0,38.0,47,0.00,,,-99.99,,2013-02-17 08:52:00,
2013-02-17 02:01:00,32.0,14.0,-100.00,South,190,29.0,35.0,47,0.00,,,-99.99,,2013-02-17 09:01:00,
2013-02-17 02:11:00,31.0,14.0,-100.00,South,190,26.0,35.0,47,0.00,,,-99.99,,2013-02-17 09:11:00,
2013-02-17 02:21:00,31.0,14.0,-100.00,South,190,24.0,32.0,47,0.00,,,-99.99,,2013-02-17 09:21:00,
2013-02-17 02:31:00,31.0,14.0,-100.00,SW,215,24.0,30.0,48,0.00,,,-99.99,,2013-02-17 09:31:00,
2013-02-17 02:41:00,31.0,14.0,-100.00,South,175,26.0,30.0,48,0.00,,,-99.99,,2013-02-17 09:41:00,
2013-02-17 02:51:00,31.0,14.0,-100.00,SW,220,27.0,35.0,49,0.00,,,-99.99,,2013-02-17 09:51:00,
2013-02-17 03:01:00,31.0,14.0,-100.00,SW,220,25.0,34.0,49,0.00,,,-99.99,,2013-02-17 10:01:00,
2013-02-17 03:11:00,30.0,14.0,-100.00,SSW,210,26.0,34.0,49,0.00,,,-99.99,,2013-02-17 10:11:00,
2013-02-17 03:21:00,30.0,14.0,-100.00,SE,145,27.0,34.0,49,0.00,,,-99.99,,2013-02-17 10:21:00,
2013-02-17 03:31:00,31.0,14.0,-100.00,SW,215,30.0,38.0,48,0.00,,,-99.99,,2013-02-17 10:31:00,
2013-02-17 03:41:00,31.0,14.0,-100.00,SSW,195,31.0,42.0,47,0.00,,,-99.99,,2013-02-17 10:41:00,
2013-02-17 03:52:00,31.0,13.0,-100.00,South,175,29.0,42.0,47,0.00,,,-99.99,,2013-02-17 10:52:00,
2013-02-17 04:01:00,31.0,13.0,-100.00,SSW,205,29.0,39.0,47,0.00,,,-99.99,,2013-02-17 11:01:00,
2013-02-17 04:11:00,31.0,13.0,-100.00,South,185,30.0,37.0,47,0.00,,,-99.99,,2013-02-17 11:11:00,
2013-02-17 04:21:00,31.0,13.0,-100.00,South,180,29.0,37.0,46,0.00,,,-99.99,,2013-02-17 11:21:00,
2013-02-17 04:32:00,30.0,12.0,-100.00,SSW,200,27.0,39.0,46,0.00,,,-99.99,,2013-02-17 11:32:00,
2013-02-17 04:41:00,31.0,12.0,-100.00,SSW,195,28.0,39.0,46,0.00,,,-99.99,,2013-02-17 11:41:00,
2013-02-17 04:52:00,30.0,12.0,-100.00,SW,225,23.0,31.0,46,0.00,,,-99.99,,2013-02-17 11:52:00,
2013-02-17 05:03:00,30.0,12.0,-100.00,SSE,160,21.0,29.0,45,0.00,,,-99.99,,2013-02-17 12:03:00,
2013-02-17 05:11:00,30.0,12.0,-100.00,SSW,210,22.0,29.0,45,0.00,,,-99.99,,2013-02-17 12:11:00,
2013-02-17 05:22:00,30.0,11.0,-100.00,South,175,22.0,31.0,44,0.00,,,-99.99,,2013-02-17 12:22:00,
2013-02-17 05:32:00,31.0,11.0,-100.00,SW,225,25.0,31.0,43,0.00,,,-99.99,,2013-02-17 12:32:00,
2013-02-17 05:42:00,31.0,11.0,-100.00,SW,220,21.0,29.0,42,0.00,,,-99.99,,2013-02-17 12:42:00,
2013-02-17 05:52:00,30.0,10.0,-100.00,SW,225,17.0,29.0,42,0.00,,,-99.99,,2013-02-17 12:52:00,
2013-02-17 06:02:00,31.0,10.0,-100.00,South,185,22.0,27.0,41,0.00,,,-99.99,,2013-02-17 13:02:00,
2013-02-17 06:12:00,31.0,10.0,-100.00,SW,230,19.0,27.0,41,0.00,,,-99.99,,2013-02-17 13:12:00,
2013-02-17 06:21:00,32.0,10.0,-100.00,SSW,210,25.0,35.0,39,0.00,,,-99.99,,2013-02-17 13:21:00,
2013-02-17 06:32:00,31.0,9.0,-100.00,SSW,195,26.0,34.0,38,0.00,,,-99.99,,2013-02-17 13:32:00,
2013-02-17 06:41:00,32.0,9.0,-100.00,SW,225,29.0,36.0,37,0.00,,,-99.99,,2013-02-17 13:41:00,
2013-02-17 06:51:00,32.0,9.0,-100.00,SSW,210,27.0,36.0,37,0.00,,,-99.99,,2013-02-17 13:51:00,
2013-02-17 07:01:00,32.0,8.0,-100.00,SSW,200,31.0,39.0,36,0.00,,,-99.99,,2013-02-17 14:01:00,
2013-02-17 07:11:00,32.0,8.0,-100.00,South,190,29.0,39.0,36,0.00,,,-99.99,,2013-02-17 14:11:00,
2013-02-17 07:21:00,32.0,8.0,-100.00,South,180,27.0,39.0,36,0.00,,,-99.99,,2013-02-17 14:21:00,
2013-02-17 07:32:00,32.0,9.0,-100.00,SW,225,27.0,35.0,37,0.00,,,-99.99,,2013-02-17 14:32:00,
2013-02-17 07:42:00,32.0,9.0,-100.00,South,175,29.0,34.0,37,0.00,,,-99.99,,2013-02-17 14:42:00,
2013-02-17 07:52:00,33.0,10.0,-100.00,South,190,31.0,40.0,38,0.00,,,-99.99,,2013-02-17 14:52:00,
2013-02-17 08:02:00,33.0,11.0,-100.00,South,190,29.0,40.0,38,0.00,,,-99.99,,2013-02-17 15:02:00,
2013-02-17 08:11:00,33.0,11.0,-100.00,SW,220,27.0,40.0,39,0.00,,,-99.99,,2013-02-17 15:11:00,
2013-02-17 08:21:00,33.0,11.0,-100.00,SSE,160,29.0,39.0,39,0.00,,,-99.99,,2013-02-17 15:21:00,
2013-02-17 08:32:00,33.0,12.0,-100.00,SSW,205,30.0,40.0,40,0.00,,,-99.99,,2013-02-17 15:32:00,
2013-02-17 08:52:00,33.0,12.0,-100.00,SW,230,29.0,40.0,40,0.00,,,-99.99,,2013-02-17 15:52:00,
2013-02-17 09:01:00,34.0,13.0,-100.00,South,190,34.0,42.0,40,0.00,,,-99.99,,2013-02-17 16:01:00,
2013-02-17 09:11:00,35.0,13.0,-100.00,SW,225,31.0,42.0,40,0.00,,,-99.99,,2013-02-17 16:11:00,
2013-02-17 09:21:00,35.0,13.0,-100.00,South,180,31.0,40.0,40,0.00,,,-99.99,,2013-02-17 16:21:00,
2013-02-17 09:32:00,35.0,13.0,-100.00,SW,225,26.0,39.0,40,0.00,,,-99.99,,2013-02-17 16:32:00,
2013-02-17 09:41:00,35.0,14.0,-100.00,South,190,27.0,39.0,40,0.00,,,-99.99,,2013-02-17 16:41:00,
2013-02-17 09:51:00,35.0,14.0,-100.00,South,185,31.0,40.0,40,0.00,,,-99.99,,2013-02-17 16:51:00,
2013-02-17 10:02:00,36.0,14.0,-100.00,SW,220,29.0,39.0,40,0.00,,,-99.99,,2013-02-17 17:02:00,
2013-02-17 10:11:00,36.0,14.0,-100.00,SW,230,29.0,39.0,40,0.00,,,-99.99,,2013-02-17 17:11:00,
2013-02-17 10:21:00,36.0,14.0,-100.00,SW,225,31.0,42.0,40,0.00,,,-99.99,,2013-02-17 17:21:00,
2013-02-17 10:32:00,36.0,14.0,-100.00,SW,215,29.0,39.0,40,0.00,,,-99.99,,2013-02-17 17:32:00,
2013-02-17 10:41:00,36.0,14.0,-100.00,SSE,165,30.0,42.0,40,0.00,,,-99.99,,2013-02-17 17:41:00,
2013-02-17 10:52:00,36.0,14.0,-100.00,SSW,200,30.0,40.0,40,0.00,,,-99.99,,2013-02-17 17:52:00,
2013-02-17 11:02:00,36.0,14.0,-100.00,SW,235,29.0,40.0,40,0.00,,,-99.99,,2013-02-17 18:02:00,
2013-02-17 11:11:00,37.0,15.0,-100.00,WSW,240,25.0,32.0,40,0.00,,,-99.99,,2013-02-17 18:11:00,
2013-02-17 11:22:00,37.0,15.0,-100.00,SSW,200,26.0,37.0,40,0.00,,,-99.99,,2013-02-17 18:22:00,
2013-02-17 11:33:00,37.0,15.0,-100.00,SSW,205,26.0,38.0,40,0.00,,,-99.99,,2013-02-17 18:33:00,
2013-02-17 11:42:00,37.0,15.0,-100.00,WSW,255,30.0,35.0,40,0.00,,,-99.99,,2013-02-17 18:42:00,
2013-02-17 11:52:00,37.0,15.0,-100.00,SW,230,29.0,38.0,40,0.00,,,-99.99,,2013-02-17 18:52:00,
2013-02-17 12:01:00,36.0,16.0,-100.00,SW,235,29.0,38.0,42,0.00,,,-99.99,,2013-02-17 19:01:00,
2013-02-17 12:11:00,36.0,16.0,-100.00,WSW,255,31.0,40.0,43,0.00,,,-99.99,,2013-02-17 19:11:00,
2013-02-17 12:21:00,35.0,17.0,-100.00,WSW,255,24.0,37.0,46,0.00,,,-99.99,,2013-02-17 19:21:00,
2013-02-17 12:32:00,35.0,17.0,-100.00,West,260,31.0,39.0,47,0.00,,,-99.99,,2013-02-17 19:32:00,
2013-02-17 12:41:00,34.0,17.0,-100.00,West,260,32.0,44.0,49,0.00,,,-99.99,,2013-02-17 19:41:00,
2013-02-17 12:51:00,34.0,17.0,-100.00,WSW,245,31.0,39.0,49,0.00,,,-99.99,,2013-02-17 19:51:00,
2013-02-17 13:02:00,33.0,17.0,-100.00,WSW,255,31.0,40.0,50,0.00,,,-99.99,,2013-02-17 20:02:00,
2013-02-17 13:11:00,33.0,17.0,-100.00,West,260,28.0,40.0,50,0.00,,,-99.99,,2013-02-17 20:11:00,
2013-02-17 13:21:00,33.0,17.0,-100.00,WSW,255,27.0,37.0,52,0.00,,,-99.99,,2013-02-17 20:21:00,
2013-02-17 13:32:00,32.0,18.0,-100.00,WSW,250,27.0,37.0,54,0.00,,,-99.99,,2013-02-17 20:32:00,
2013-02-17 13:42:00,32.0,18.0,-100.00,West,260,28.0,38.0,55,0.00,,,-99.99,,2013-02-17 20:42:00,
2013-02-17 13:52:00,32.0,18.0,-100.00,SW,235,26.0,35.0,55,0.00,,,-99.99,,2013-02-17 20:52:00,
2013-02-17 14:02:00,32.0,19.0,-100.00,West,265,28.0,37.0,56,0.00,,,-99.99,,2013-02-17 21:02:00,
2013-02-17 14:11:00,32.0,18.0,-100.00,WSW,245,30.0,43.0,56,0.00,,,-99.99,,2013-02-17 21:11:00,
2013-02-17 14:21:00,31.0,18.0,-100.00,West,260,27.0,35.0,58,0.00,,,-99.99,,2013-02-17 21:21:00,
2013-02-17 14:32:00,31.0,19.0,-100.00,WSW,255,27.0,34.0,59,0.00,,,-99.99,,2013-02-17 21:32:00,
2013-02-17 14:41:00,31.0,19.0,-100.00,WSW,250,25.0,32.0,60,0.00,,,-99.99,,2013-02-17 21:41:00,
2013-02-17 14:52:00,31.0,19.0,-100.00,WSW,250,24.0,34.0,62,0.00,,,-99.99,,2013-02-17 21:52:00,
2013-02-17 15:01:00,30.0,20.0,-100.00,WSW,255,26.0,33.0,64,0.00,,,-99.99,,2013-02-17 22:01:00,
2013-02-17 15:12:00,30.0,20.0,-100.00,West,265,24.0,35.0,65,0.00,,,-99.99,,2013-02-17 22:12:00,
2013-02-17 15:21:00,29.0,21.0,-100.00,WSW,250,24.0,35.0,69,0.00,,,-99.99,,2013-02-17 22:21:00,
2013-02-17 15:32:00,29.0,21.0,-100.00,West,260,21.0,32.0,71,0.00,,,-99.99,,2013-02-17 22:32:00,
2013-02-17 15:41:00,29.0,22.0,-100.00,SW,220,23.0,35.0,75,0.00,,,-99.99,,2013-02-17 22:41:00,
2013-02-17 15:52:00,29.0,23.0,-100.00,WSW,245,21.0,28.0,79,0.00,,,-99.99,,2013-02-17 22:52:00,
2013-02-17 16:02:00,28.0,23.0,-100.00,WSW,240,22.0,30.0,82,0.00,,,-99.99,,2013-02-17 23:02:00,
2013-02-17 16:11:00,28.0,24.0,-100.00,West,260,19.0,30.0,84,0.01,,,-99.99,,2013-02-17 23:11:00,
2013-02-17 16:21:00,27.0,25.0,-100.00,WSW,255,21.0,27.0,94,0.04,,,-99.99,,2013-02-17 23:21:00,
2013-02-17 16:32:00,26.0,25.0,-100.00,West,270,14.0,24.0,97,0.06,,,-99.99,,2013-02-17 23:32:00,
2013-02-17 16:42:00,25.0,25.0,-100.00,WSW,250,24.0,28.0,99,0.00,,,-99.99,,2013-02-17 23:42:00,
2013-02-17 16:52:00,24.0,24.0,-100.00,West,265,19.0,27.0,99,0.06,,,-99.99,,2013-02-17 23:52:00,
2013-02-17 17:01:00,23.0,23.0,-100.00,WSW,255,23.0,30.0,99,0.16,,,-99.99,,2013-02-18 00:01:00,
2013-02-17 17:11:00,23.0,23.0,-100.00,West,265,19.0,25.0,99,0.00,,,-99.99,,2013-02-18 00:11:00,
2013-02-17 17:22:00,23.0,23.0,-100.00,WSW,255,19.0,24.0,99,0.04,,,-99.99,,2013-02-18 00:22:00,
2013-02-17 17:31:00,23.0,23.0,-100.00,West,265,20.0,26.0,99,0.01,,,-99.99,,2013-02-18 00:31:00,
2013-02-17 17:52:00,21.0,21.0,-100.00,SSW,195,23.0,33.0,99,0.00,,,-99.99,,2013-02-18 00:52:00,
2013-02-17 18:01:00,21.0,20.0,-100.00,South,190,26.0,32.0,96,0.01,,,-99.99,,2013-02-18 01:01:00,
2013-02-17 18:11:00,21.0,21.0,-100.00,South,185,21.0,32.0,96,0.03,,,-99.99,,2013-02-18 01:11:00,
2013-02-17 18:21:00,21.0,20.0,-100.00,SW,215,19.0,27.0,96,0.01,,,-99.99,,2013-02-18 01:21:00,
2013-02-17 18:31:00,21.0,20.0,-100.00,SW,230,20.0,27.0,95,0.00,,,-99.99,,2013-02-18 01:31:00,
2013-02-17 18:41:00,22.0,20.0,-100.00,SW,220,19.0,25.0,93,0.01,,,-99.99,,2013-02-18 01:41:00,
2013-02-17 18:51:00,22.0,20.0,-100.00,SE,145,17.0,26.0,92,0.08,,,-99.99,,2013-02-18 01:51:00,
2013-02-17 19:01:00,22.0,20.0,-100.00,SW,220,19.0,23.0,93,0.00,,,-99.99,,2013-02-18 02:01:00,
2013-02-17 19:11:00,22.0,21.0,-100.00,SW,230,18.0,24.0,93,0.00,,,-99.99,,2013-02-18 02:11:00,
2013-02-17 19:21:00,22.0,20.0,-100.00,SW,215,17.0,22.0,92,0.04,,,-99.99,,2013-02-18 02:21:00,
2013-02-17 19:32:00,22.0,20.0,-100.00,SW,230,18.0,24.0,94,0.00,,,-99.99,,2013-02-18 02:32:00,
2013-02-17 19:41:00,22.0,20.0,-100.00,South,185,16.0,21.0,92,0.00,,,-99.99,,2013-02-18 02:41:00,
2013-02-17 19:52:00,22.0,21.0,-100.00,SSW,200,18.0,25.0,96,0.01,,,-99.99,,2013-02-18 02:52:00,
2013-02-17 20:01:00,22.0,21.0,-100.00,SSW,205,20.0,23.0,96,0.00,,,-99.99,,2013-02-18 03:01:00,
2013-02-17 20:11:00,22.0,20.0,-100.00,SSW,200,20.0,24.0,94,0.00,,,-99.99,,2013-02-18 03:11:00,
2013-02-17 20:21:00,22.0,20.0,-100.00,SW,215,17.0,22.0,92,0.00,,,-99.99,,2013-02-18 03:21:00,
2013-02-17 20:31:00,22.0,19.0,-100.00,SSW,200,21.0,26.0,90,0.00,,,-99.99,,2013-02-18 03:31:00,
2013-02-17 20:42:00,21.0,19.0,-100.00,South,190,21.0,25.0,89,0.00,,,-99.99,,2013-02-18 03:42:00,
2013-02-17 20:51:00,21.0,18.0,-100.00,South,175,21.0,26.0,86,0.00,,,-99.99,,2013-02-18 03:51:00,
2013-02-17 21:01:00,21.0,17.0,-100.00,South,185,21.0,28.0,84,0.00,,,-99.99,,2013-02-18 04:01:00,
2013-02-17 21:11:00,21.0,18.0,-100.00,West,260,20.0,26.0,85,0.00,,,-99.99,,2013-02-18 04:11:00,
2013-02-17 21:21:00,21.0,18.0,-100.00,SE,145,22.0,29.0,86,0.00,,,-99.99,,2013-02-18 04:21:00,
2013-02-17 21:32:00,21.0,17.0,-100.00,SW,225,23.0,29.0,87,0.00,,,-99.99,,2013-02-18 04:32:00,
2013-02-17 21:41:00,20.0,17.0,-100.00,South,170,23.0,28.0,87,0.00,,,-99.99,,2013-02-18 04:41:00,
2013-02-17 21:51:00,20.0,17.0,-100.00,South,180,22.0,28.0,85,0.00,,,-99.99,,2013-02-18 04:51:00,
2013-02-17 22:02:00,20.0,17.0,-100.00,West,260,20.0,27.0,86,0.00,,,-99.99,,2013-02-18 05:02:00,
2013-02-17 22:11:00,20.0,17.0,-100.00,WSW,240,20.0,24.0,87,0.01,,,-99.99,,2013-02-18 05:11:00,
2013-02-17 22:21:00,19.0,17.0,-100.00,SW,215,16.0,22.0,93,0.04,,,-99.99,,2013-02-18 05:21:00,
2013-02-17 22:31:00,18.0,18.0,-100.00,SSW,195,17.0,21.0,97,0.07,,,-99.99,,2013-02-18 05:31:00,
2013-02-17 22:41:00,18.0,18.0,-100.00,West,265,19.0,21.0,99,0.38,,,-99.99,,2013-02-18 05:41:00,
2013-02-17 22:52:00,17.0,17.0,-100.00,SW,215,15.0,19.0,99,0.21,,,-99.99,,2013-02-18 05:52:00,
2013-02-17 23:02:00,17.0,17.0,-100.00,SW,230,13.0,17.0,99,0.23,,,-99.99,,2013-02-18 06:02:00,
2013-02-17 23:11:00,17.0,17.0,-100.00,South,180,15.0,17.0,99,0.04,,,-99.99,,2013-02-18 06:11:00,
2013-02-17 23:21:00,17.0,17.0,-100.00,SSW,200,10.0,16.0,99,0.04,,,-99.99,,2013-02-18 06:21:00,
2013-02-17 23:32:00,18.0,17.0,-100.00,South,185,10.0,14.0,99,0.01,,,-99.99,,2013-02-18 06:32:00,
2013-02-17 23:41:00,18.0,17.0,-100.00,WSW,250,11.0,14.0,99,0.01,,,-99.99,,2013-02-18 06:41:00,
2013-02-17 23:51:00,18.0,17.0,-100.00,West,270,7.0,16.0,99,0.01,,,-99.99,,2013-02-18 06:51:00,